Flugplatz Geilenkirchen (ETNG)

Hier findest Du alle Informationen zum Flugplatz Geilenkirchen (ETNG).

Informationen für Piloten zum Flugplatz Geilenkirchen

Hier findest Du alle relevanten Informationen, die Du als Pilot benötigst, um Geilenkirchen anzufliegen.

Flugplatz: Geilenkirchen ICAO-Code: ETNG
Frequenz Turm: 122,100 Mhz GAFOR Gebiet: 31
Frequenz Ground: 122,100 Mhz Mogas: nein
Platzrunde: - Landegebühr: -
Platzhöhe: - Sunrise: 03:31 Uhr UTC
Pisten: 09/27 - 3.050 m x , BIT Sunset: 19:33 Uhr UTC

Mitglieder, die in Geilenkirchen fliegen

Flugwetter am Flugplatz Geilenkirchen

Die METAR Information stammen aus EDLN (43.90 km entfernt).

METAR Code:
2019/05/14 04:50
EDLN 140450Z AUTO 33003KT 9999 // NCD 05/02 Q1035

Flugschulen am Flugplatz Geilenkirchen

Am Flugplatz Geilenkirchen gibt es leider keine Flugschule.

Benachbarte Flugplätze und Flugschulen

Es gibt 13 weitere Flugplätze in einem Umkreis von 50 km um den Flugplatz Geilenkirchen.

Jetzt anmelden

Passwort vergessen

Umfrage Archiv

Welche Art von Theorieunterricht würde Dir am ehesten zusagen?

Frontalunterricht
64.1 %
Selbststudium
35.9 %
Stimmen: 365 | Diskussion
Anzeige: Roland Aircraft
Statistik Alle Mitglieder

Aktuell sind 36 Besucher online, davon 4 Mitglieder und 32 Gäste.


Mitglieder online:
raller  b3nn0  Scoobydoo  Eldim 

Anzeige: VFR Sprechfunk Simulator


Anzeige: Pocket FMS